CW3467 Sant Marti de Canals ES current weather conditions

sailwx.info

Wind from 319 at 0 knots gusting 3

Air temperature 8.3° C
Dewpoint 5.1° C

Last reported at 2016-Feb-06 22:36 UTC.
Time now 2016-Feb-06 23:24 UTC

Location: N 42°14' E 000°59'.
View on Google Maps.

See reports from other nearby stations

  
Tides and Currents Weather Stations Pressure Air Temp Water Temp Dewpoint Dewpoint Depression Visibility Wind Speed Wind Dir Waves Ship Positions
date/time (UTC)wind fromknots sea level pressurealtimeterstation pressurevisibilityair tempwater tempwave heightnotes
2016-Feb-06 22:36 319 0 gusting 3 8.3
2016-Feb-06 22:21 231 2 gusting 5 8.3
2016-Feb-06 22:06 229 0 gusting 4 8.3
2016-Feb-06 21:51 122 1 gusting 5 8.3
2016-Feb-06 21:36 142 3 gusting 5 8.3
2016-Feb-06 21:21 074 0 gusting 4 8.3
2016-Feb-06 21:06 132 1 gusting 5 8.9
2016-Feb-06 20:51 129 5 gusting 7 8.9
2016-Feb-06 20:36 131 4 gusting 6 8.9
2016-Feb-06 20:21 120 8.9
2016-Feb-06 20:06 051 0 gusting 2 8.9
2016-Feb-06 19:51 327 8.9
2016-Feb-06 19:36 285 0 gusting 5 9.4
2016-Feb-06 19:21 203 3 gusting 7 9.4
2016-Feb-06 19:06 156 4 gusting 6 9.4
2016-Feb-06 18:51 142 3 gusting 6 9.4
2016-Feb-06 18:36 165 5 gusting 9 9.4
2016-Feb-06 18:21 106 8.9
2016-Feb-06 18:06 113 9.4
2016-Feb-06 17:52 156 0 gusting 1 9.4
2016-Feb-06 17:37 222 9.4
2016-Feb-06 17:22 145 2 gusting 6 9.4
2016-Feb-06 17:07 134 3 gusting 5 10.0
2016-Feb-06 16:52 134 1 gusting 3 10.6
2016-Feb-06 16:37 217 11.1
2016-Feb-06 16:21 195 10.6
2016-Feb-06 16:06 219 0 gusting 2 11.7
2016-Feb-06 15:51 252 0 gusting 7 12.2
2016-Feb-06 15:36 240 0 gusting 6 12.2
2016-Feb-06 15:21 240 4 gusting 8 12.8
2016-Feb-06 15:06 222 2 gusting 5 13.3
2016-Feb-06 14:51 243 1 gusting 4 13.3
2016-Feb-06 14:36 221 3 gusting 7 12.8
2016-Feb-06 14:21 133 3 gusting 7 12.8
2016-Feb-06 14:06 260 0 gusting 5 12.8
2016-Feb-06 13:51 243 2 gusting 6 12.2
2016-Feb-06 13:36 231 1 gusting 5 12.2
2016-Feb-06 13:21 217 2 gusting 6 12.2
2016-Feb-06 13:06 165 1 gusting 5 12.2
2016-Feb-06 12:51 302 0 gusting 5 11.7
2016-Feb-06 12:36 229 11.7
2016-Feb-06 12:22 200 0 gusting 3 11.7
2016-Feb-06 12:06 221 0 gusting 2 11.1
2016-Feb-06 11:51 266 10.6
2016-Feb-06 11:36 262 10.0
2016-Feb-06 11:20 288 9.4
2016-Feb-06 11:05 300 8.9
2016-Feb-06 10:50 260 0 gusting 1 8.3
2016-Feb-06 10:35 257 8.3
2016-Feb-06 10:20 238 7.2
2016-Feb-06 10:05 232 6.7
2016-Feb-06 09:50 231 6.1
2016-Feb-06 09:35 228 5.6
2016-Feb-06 09:20 046 3.9
2016-Feb-06 09:05 252 4.4
2016-Feb-06 08:50 229 3.3
2016-Feb-06 08:35 221 2.8
2016-Feb-06 08:20 060 3.3
2016-Feb-06 08:05 026 2.2
2016-Feb-06 07:50 026 0.6
2016-Feb-06 07:35 019 1 gusting 1 -0.0
2016-Feb-06 07:20 128 -0.0
2016-Feb-06 07:05 018 1.1
2016-Feb-06 06:50 103 -0.0
2016-Feb-06 06:35 035 0.6
2016-Feb-06 06:20 001 0.6
2016-Feb-06 06:05 045 1.7
2016-Feb-06 05:50 039 1.1
2016-Feb-06 05:35 111 1.1
2016-Feb-06 05:20 111 1.1
2016-Feb-06 05:05 111 1.1
2016-Feb-06 04:49 111 1.7
2016-Feb-06 04:34 111 2.2
2016-Feb-06 04:19 113 2.8
2016-Feb-06 04:04 109 2.2
2016-Feb-06 03:49 121 2.2
2016-Feb-06 03:34 121 2.8
2016-Feb-06 03:19 122 2.8
2016-Feb-06 03:04 121 3.3
2016-Feb-06 02:49 128 2.8
2016-Feb-06 02:34 128 3.3
2016-Feb-06 02:19 128 3.3
2016-Feb-06 02:04 128 3.9
2016-Feb-06 01:49 129 3.3
2016-Feb-06 01:34 128 3.9
2016-Feb-06 01:19 129 4.4
2016-Feb-06 01:04 129 4.4
2016-Feb-06 00:49 129 3.9
2016-Feb-06 00:34 130 4.4
2016-Feb-06 00:19 129 5.0
2016-Feb-06 00:04 103 5.0
2016-Feb-05 23:49 106 5.0
2016-Feb-05 23:34 102 5.0
2016-Feb-05 23:19 120 5.6
2016-Feb-05 23:04 097 0 gusting 1 6.1
2016-Feb-05 22:49 097 6.1
2016-Feb-05 22:34 108 5.6
2016-Feb-05 22:19 108 6.1
2016-Feb-05 22:04 104 6.1
2016-Feb-05 21:49 103 6.7
2016-Feb-05 21:34 123 6.7
2016-Feb-05 21:19 123 7.2
2016-Feb-05 21:04 094 0 gusting 1 7.2
2016-Feb-05 20:49 107 7.2
2016-Feb-05 20:34 329 7.2
2016-Feb-05 20:18 103 7.8
2016-Feb-05 20:03 103 7.8
2016-Feb-05 19:48 105 7.8
2016-Feb-05 19:33 104 8.3
2016-Feb-05 19:18 107 8.3
2016-Feb-05 19:03 112 0 gusting 2 8.3
2016-Feb-05 18:48 122 8.9
2016-Feb-05 18:33 124 9.4
2016-Feb-05 18:18 113 0 gusting 2 10.0
2016-Feb-05 18:03 134 10.0
2016-Feb-05 17:48 079 11.1
2016-Feb-05 17:33 009 11.7
2016-Feb-05 17:18 029 11.7
2016-Feb-05 17:03 049 0 gusting 2 11.7
2016-Feb-05 16:48 273 12.8
2016-Feb-05 16:33 270 13.9
2016-Feb-05 16:18 281 13.3
2016-Feb-05 16:03 282 13.9
2016-Feb-05 15:48 287 15.0
2016-Feb-05 15:33 243 15.6
2016-Feb-05 15:18 309 15.0
2016-Feb-05 15:03 236 13.9
2016-Feb-05 14:48 219 15.0
2016-Feb-05 14:34 257 14.4
2016-Feb-05 14:18 283 14.4
2016-Feb-05 14:03 210 13.9
2016-Feb-05 13:48 359 13.3
2016-Feb-05 13:33 278 12.2
2016-Feb-05 13:18 290 12.8
2016-Feb-05 13:03 252 0 gusting 3 11.7
2016-Feb-05 12:48 197 11.7
2016-Feb-05 12:33 134 1 gusting 3 10.6
2016-Feb-05 12:18 231 0 gusting 2 11.1
2016-Feb-05 12:02 215 10.0
2016-Feb-05 11:47 210 0 gusting 2 9.4
2016-Feb-05 11:32 214 8.3
2016-Feb-05 11:17 263 7.2
2016-Feb-05 11:02 224 1 gusting 4 7.2
2016-Feb-05 10:48 221 7.2
2016-Feb-05 10:32 240 6.1
2016-Feb-05 10:17 223 5.6
2016-Feb-05 10:02 211 5.0
2016-Feb-05 09:47 229 4.4
2016-Feb-05 09:32 228 0 gusting 2 3.9
2016-Feb-05 09:17 132 3.3
2016-Feb-05 09:02 212 3.9
2016-Feb-05 08:47 150 2.8
2016-Feb-05 08:32 212 2.8
2016-Feb-05 08:17 208 1.1
2016-Feb-05 08:03 153 1.1
2016-Feb-05 07:47 152 -1.1
2016-Feb-05 07:32 152 -1.7
2016-Feb-05 07:17 145 0 gusting 1 -1.1
2016-Feb-05 07:02 053 -1.7
2016-Feb-05 06:47 053 -1.1
2016-Feb-05 06:32 053 -0.6
2016-Feb-05 06:17 053 -0.6
2016-Feb-05 06:01 054 -1.1
2016-Feb-05 05:46 053 1 gusting 2 -1.1
2016-Feb-05 05:31 264 -1.1
2016-Feb-05 05:16 305 -0.6
2016-Feb-05 05:01 044 0 gusting 2 -0.6
2016-Feb-05 04:46 028 -0.6
2016-Feb-05 04:31 104 -0.6
2016-Feb-05 04:16 104 -0.0
2016-Feb-05 04:01 267 -0.0
2016-Feb-05 03:48 032 0.6
2016-Feb-05 03:31 032 -0.0
2016-Feb-05 03:16 229 -0.0
2016-Feb-05 03:01 108 0 gusting 1 0.6
2016-Feb-05 02:46 030 0.6
2016-Feb-05 02:31 008 -0.0
2016-Feb-05 02:16 008 1 gusting 1 -0.0
2016-Feb-05 02:01 281 1.1
2016-Feb-05 01:46 127 1.1
2016-Feb-05 01:31 127 1.1
2016-Feb-05 01:16 127 1.1
2016-Feb-05 01:01 127 1.7
2016-Feb-05 00:46 134 1.1
2016-Feb-05 00:31 134 2.2
2016-Feb-05 00:16 120 0 gusting 2 1.7
2016-Feb-05 00:00 012 2.2
2016-Feb-04 23:45 103 1 gusting 2 1.7
2016-Feb-04 23:30 238 0 gusting 1 2.2
2016-Feb-04 23:15 072 2.8
2016-Feb-04 23:00 109 0 gusting 0 2.2